Regional Weather Roundup
Issued by NWS

Home | Current Version | Previous Version | Graphics & Text | Print | Product List | Glossary On
Versions: 1 2 3 4 5 6 7 8 9 10 11 12 13 14 15 16 17 18 19 20 21 22 23 24 25 26 27 28 29 30 31 32 33 34 35 36 37 38 39 40 41 42 43 44 45 46 47 48 49 50
000
ASUS43 KTOP 101659
RWRKS

WEATHER ROUNDUP FOR KANSAS
NATIONAL WEATHER SERVICE GOODLAND KS
1100 AM CST SAT DEC 10 2016

NOTE:  "FAIR" INDICATES FEW OR NO CLOUDS BELOW 12,000 FEET WITH NO
SIGNIFICANT WEATHER AND/OR OBSTRUCTIONS TO VISIBILITY.

KSZ001>006-013>018-027>032-041>047-101800-
NORTHWEST KANSAS

CITY           SKY/WX    TMP DP  RH WIND       PRES   REMARKS
GOODLAND       CLOUDY    24  22  91 S14       29.93F WCI  12
HAYS           CLOUDY    31  20  63 S17       30.13F WCI  19
HILL CITY      CLOUDY    30  18  60 S12G20    30.11F WCI  20
RUSSELL        CLOUDY    32  18  56 S21       30.14F WCI  20
$$

KSZ061>065-074>080-084>089-101800-
SOUTHWEST KANSAS

CITY           SKY/WX    TMP DP  RH WIND       PRES   REMARKS
DODGE CITY     CLOUDY    31  22  69 S21       30.09F WCI  18
GARDEN CITY    CLOUDY    29  21  72 S14       30.05F WCI  18
GREAT BEND     CLOUDY    33  19  56 S15       30.16F WCI  23
LIBERAL        CLOUDY    34  25  69 SE9       30.05F
$$

KSZ066>073-081>083-090>101-101800-
SOUTHEAST KANSAS

CITY           SKY/WX    TMP DP  RH WIND       PRES   REMARKS
CHANUTE        CLOUDY    36  20  52 S13       30.34F WCI  27
COFFEYVILLE    CLOUDY    39  20  46 S16       30.36F WCI  30
HUTCHINSON     CLOUDY    37  20  50 S24G30    30.22F WCI  26
MEDICINE LODGE   N/A     35  21  56 S18G26    30.19F WCI  24
NEWTON         CLOUDY    35  20  54 S16       30.25F WCI  25
PARSONS        CLOUDY    38  20  48 S9        30.36F
WICHITA INTL   CLOUDY    37  21  52 S17G25    30.25F WCI  27
WICHITA JABRA  CLOUDY    36  21  54 S17G23    30.24F WCI  26
WINFIELD       CLOUDY    38  21  50 S17       30.29F WCI  28
$$

KSZ007>012-019>026-033>040-048>060-102>105-101800-
NORTHEAST KANSAS

CITY           SKY/WX    TMP DP  RH WIND       PRES   REMARKS
CONCORDIA      CLOUDY    29  18  63 SE12      30.24F WCI  19
EMPORIA        CLOUDY    33  19  56 SE14      30.29F WCI  23
LAWRENCE       CLOUDY    32  21  64 SE8       30.36F
MANHATTAN      CLOUDY    33  17  51 SE7       30.30F
OLATHE IND     CLOUDY    32  19  58 SE10      30.36F WCI  24
OLATHE EXE     CLOUDY    30  18  60 SE8       30.35F
SALINA         CLOUDY    35  19  52 SE12      30.25F WCI  27
TOPEKA BILLARD PTSUNNY   34  19  54 SE10      30.33F WCI  26
TOPEKA FORBES  CLOUDY    35  19  52 S8        30.33F
$$



USA.gov is the U.S. government's official web portal to all federal, state and local government web resources and services.